TimeEST,TemperatureF,Dew PointF,Humidity,Sea Level PressureIn,VisibilityMPH,Wind Direction,Wind SpeedMPH,Gust SpeedMPH,PrecipitationIn,Events,Conditions,WindDirDegrees,DateUTC
12:56 AM,30.9,28.9,92,29.73,-9999.0,NNW,6.9,-,N/A,,Unknown,340,2013-03-05 05:56:00
1:56 AM,30.0,28.0,92,29.75,-9999.0,NNW,5.8,-,N/A,,Unknown,340,2013-03-05 06:56:00
2:56 AM,30.0,28.0,92,29.78,-9999.0,North,11.5,-,N/A,,Unknown,350,2013-03-05 07:56:00
3:56 AM,30.0,28.0,92,29.81,-9999.0,Variable,4.6,-,N/A,,Unknown,0,2013-03-05 08:56:00
4:56 AM,30.0,27.0,88,29.83,-9999.0,North,12.7,19.6,N/A,,Unknown,360,2013-03-05 09:56:00
5:56 AM,30.0,27.0,88,29.86,-9999.0,North,11.5,-,N/A,,Unknown,360,2013-03-05 10:56:00
6:56 AM,30.0,28.0,92,29.89,-9999.0,North,9.2,-,N/A,,Unknown,360,2013-03-05 11:56:00
7:56 AM,30.9,28.9,92,29.91,-9999.0,North,10.4,-,0.01,,Unknown,350,2013-03-05 12:56:00
8:56 AM,32.0,28.9,88,29.93,-9999.0,NNW,9.2,-,N/A,,Unknown,340,2013-03-05 13:56:00
9:56 AM,33.1,28.9,85,29.94,-9999.0,North,13.8,-,N/A,,Unknown,350,2013-03-05 14:56:00
10:56 AM,33.1,28.9,85,29.94,-9999.0,North,13.8,21.9,N/A,,Unknown,360,2013-03-05 15:56:00
11:56 AM,35.1,28.9,78,29.96,-9999.0,North,9.2,19.6,N/A,,Unknown,10,2013-03-05 16:56:00
12:56 PM,35.1,30.0,82,29.97,-9999.0,North,9.2,-,N/A,,Unknown,360,2013-03-05 17:56:00
1:56 PM,35.1,28.9,78,29.99,-9999.0,NNE,11.5,-,N/A,,Unknown,20,2013-03-05 18:56:00
2:56 PM,36.0,30.0,79,30.00,-9999.0,North,11.5,-,N/A,,Unknown,10,2013-03-05 19:56:00
3:56 PM,34.0,30.9,89,30.02,-9999.0,North,6.9,-,N/A,,Unknown,10,2013-03-05 20:56:00
4:56 PM,34.0,30.9,89,30.04,-9999.0,North,9.2,-,N/A,,Unknown,360,2013-03-05 21:56:00
5:56 PM,34.0,30.9,89,30.06,-9999.0,North,10.4,-,N/A,,Unknown,10,2013-03-05 22:56:00
6:56 PM,33.1,30.9,92,30.08,-9999.0,North,8.1,-,0.01,,Unknown,10,2013-03-05 23:56:00
7:56 PM,32.0,28.0,85,30.10,-9999.0,ENE,11.5,19.6,N/A,,Unknown,60,2013-03-06 00:56:00
8:56 PM,32.0,28.0,85,30.12,-9999.0,NE,9.2,-,N/A,,Unknown,50,2013-03-06 01:56:00
9:56 PM,30.9,28.0,89,30.12,-9999.0,NE,6.9,-,N/A,,Unknown,50,2013-03-06 02:56:00
10:56 PM,30.9,28.0,89,30.14,-9999.0,ENE,5.8,-,N/A,,Unknown,60,2013-03-06 03:56:00
11:56 PM,30.0,28.0,92,30.16,-9999.0,East,5.8,-,N/A,,Unknown,80,2013-03-06 04:56:00